COSMOS 1275 DEB, 42103

Orbit data source: Space-Track

COSMOS 1275 DEB, 42103 is space debris in LEO originally from a launch on Thu, 04 Jun 1981 UTC launched from the Plesetsk Missile And Space Complex (PKMTR). Debris objects in space refer to the collection of defunct objects orbiting the Earth. Examples of debris include non-operational satellites, rocket bodies, and fragments generated from explosions, collisions, or faulty payload assembly.

Loading next visibility...
Identifier
42103, 1981-053PP
Orbit
LEO
Country
Flag of CISCIS
Related business
Manufacturer
Unknown
Mission
Spacecraft
Bus & Motor
Unknown
Mass
Unknown
Launch date (UTC)
1981-06-04 (44 years ago)
Launch vehicle
Unknown
Launch site
Plesetsk Missile And Space Complex (PKMTR)
Object type
Payload
Rocket body
Debris
Shape & HBR
Unknown shape, 0.1 m
Radar Cross Section
Small (<0.1 m²)

Expand to show TLE details & history
Last TLE update: 2 weeks ago

TLE from 2 weeks ago
0 COSMOS 1275 DEB
1 42103U 81053PP  25296.24544302  .00003164  00000-0  16210-2 0  9991
2 42103  83.1723 124.6390 0029025  49.8677 310.5038 14.14984198611388
Epoch: 2025-10-23T05:53Z
TLE epoch observation values (Epoch: 2025-10-23T05:53:26.276Z)
Latitude
-0.00004°
Longitude
4.37205°
Altitude
831.748 km
Speed
7.444 km/s
True Right ascension
08h 18m 33s
True Declination
0° 00' 00"
Sunlit
Object was in daylight at epoch
Visualization orbit readout
Latitude
Unknown
Longitude
Unknown
Altitude
Unknown
Speed
Unknown
Apparent Right ascension
Unknown
Apparent Declination
Unknown
Sunlit
N/A
Visualization observer readout
Local Sidereal Time
07:59:39
Azimuth
Unknown
Elevation
Unknown
Doppler factor
Unknown
Orbital elements
Apogee altitude
860.4 km
Perigee altitude
818.502 km
Semi-major axis
7,217.588 km
Eccentricity
0.0029
Inclination
83.1723°
RAAN
124.639°
Arg. of periapsis
49.8677°
True anomaly
310.25031°
Mean anomaly
310.5038°
Eccentric anomaly
310.37711°
Mean motion
3.53961 °/min
Orbital period
101.71 mins
BSTAR
0.001621
Loading maneuver chart data...
Computing Atmospheric mass density...
Loading historical data...
Loading historical data...
Loading historical data...
Loading historical data...
Loading historical data...
Loading historical data...
Loading historical data...

Documentation

Showing up to 5 results
|